Meteo Giornale » Osservazioni meteo Gran Bretagna » Shoreham
ore: 19:50 - Osservazioni Meteo Shoreham
Lat. 50° 50' N Lon. 0° 17' W Alt. 2 metri s.l.m.
19 °C
Sereno
Temp. 24 Ore
16 °C
24 °C
Ovest
9.3 Km/h
Dew point 14 °C
Umidità 72 %
Visibilità 10 Km
Il sole sorge alle ore 06:15
Il sole tramonta alle ore 19:47
| Data e Ora | Cielo e Fenomeni | T °C | DP °C | Um. % | Pres. hPa | Vis. km | Vento km/h | |
|---|---|---|---|---|---|---|---|---|
| Ieri h: 19:50 | Sereno | 19 | 14 | 72 | 1017 | 10 | O 9.3 | |
| Ieri h: 19:20 | Poco Nuvoloso | 20 | 15 | 72 | 1016 | 10 | O/SO 18.5 | |
| Ieri h: 18:50 | Poco Nuvoloso | 20 | 16 | 77 | 1016 | 10 | O/SO 25.9 | |
| Ieri h: 18:20 | Poco Nuvoloso | 21 | 16 | 73 | 1016 | 10 | O/SO 27.8 | |
| Ieri h: 17:50 | Poco Nuvoloso | 21 | 16 | 73 | 1015 | 10 | O/SO 25.9 | |
| Ieri h: 17:20 | Poco Nuvoloso | 21 | 16 | 73 | 1015 | 10 | O/SO 25.9 | |
| Ieri h: 16:50 | Poco Nuvoloso | 22 | 17 | 73 | 1015 | 10 | O/SO 27.8 | |
| Ieri h: 16:20 | Nuvoloso | 22 | 17 | 73 | 1014 | 10 | SO 25.9 | |
| Ieri h: 15:50 | Nuvoloso | 22 | 16 | 68 | 1014 | 10 | SO 33.3 | |
| Ieri h: 15:20 | Poco Nuvoloso | 24 | 15 | 57 | 1014 | 10 | O/SO 25.9 | |
| Ieri h: 14:50 | Poco Nuvoloso | 23 | 15 | 60 | 1014 | 10 | O/SO 25.9 | |
| Ieri h: 14:20 | Nuvoloso | 22 | 15 | 64 | 1013 | 10 | O/SO 24 | |
| Ieri h: 13:50 | Poco Nuvoloso | 21 | 16 | 73 | 1013 | 10 | O/SO 18.5 | |
| Ieri h: 13:20 | Nuvoloso | 20 | 16 | 77 | 1013 | 10 | O/SO 13 | |
| Ieri h: 12:50 | Pioggia nelle vicinanze | 19 | 15 | 77 | 1013 | 10 | O 13 | |
| Ieri h: 12:20 | Pioggia | 20 | 14 | 68 | 1012 | 10 | O 20.3 | |
| Ieri h: 11:50 | Molto Nuvoloso | 21 | 15 | 68 | 1012 | 10 | O 25.9 | |
| Ieri h: 11:20 | Molto Nuvoloso | 20 | 15 | 72 | 1012 | 10 | O 24 | |
| Ieri h: 10:50 | Molto Nuvoloso | 19 | 15 | 77 | 1011 | 10 | O 24 | |
| Ieri h: 10:20 | Nuvoloso | 19 | 15 | 77 | 1011 | 10 | O 24 | |
| Ieri h: 09:50 | Nuvoloso | 18 | 15 | 82 | 1010 | 10 | O 27.8 | |
| Ieri h: 09:20 | Poco Nuvoloso | 17 | 15 | 88 | 1010 | 10 | O 25.9 | |
| Ieri h: 08:50 | Poco Nuvoloso | 17 | 15 | 88 | 1010 | 10 | O 25.9 | |
| Ieri h: 08:20 | Poco Nuvoloso | 16 | 15 | 93 | 1009 | 10 | O 18.5 | |
| Ieri h: 07:50 | Poco Nuvoloso | 16 | 14 | 87 | 1009 | 10 | O 16.7 | |



